SCP
0 0 0 0 0 0 0 0 0 0 0 0 0 0 0 0 0 0 0 0 0 0 0 0 0 0 0 0 0 0 0 0 0 0 0 0 0 0 0 0 0 0 0 0 0 0 0 0 0
0 0 0 0 0 0 0 0 0 0 0 0 0 0 0 0 0 0 0 0 0 0 0 0 0 1 0 0 0 0 0 0 0 0 0 0 0 0 0 0 0 0 0 0 0 0 0 0 0
0 0 -0 0 0 0 0 0 0 0 0 0 0 0 0 0 0 0 0 0 1 1 0 0 1 1 0 0 0 0 0 0 0 0 0 0 0 0 0 0 0 0 0 0 0 0 0 0 0
-0 -0 -0 0 0 0 0 0 0 0 0 0 0 0 0 0 0 0 0 1 1 1 1 1 1 1 1 0 0 0 0 0 0 0 0 0 0 0 0 0 0 0 0 0 0 0 0 0 0
-0 -0 -0 0 0 0 0 0 0 0 0 0 0 0 0 0 0 0 1 1 1 1 1 1 1 1 1 1 0 0 0 0 0 0 0 0 0 0 0 0 0 0 0 0 0 0 0 0 0
-0 -0 0 0 0 0 0 0 0 0 0 1 1 1 0 0 1 1 1 1 1 1 1 1 1 1 1 1 0 0 0 0 0 0 0 0 0 0 0 0 0 0 0 0 0 0 0 0 0
-0 0 0 0 0 0 0 0 0 0 1 1 1 1 1 1 1 1 1 1 1 1 1 1 1 1 1 0 0 0 0 0 0 0 0 0 0 0 0 0 0 0 0 0 0 0 0 0 0
-0 0 0 0 0 0 0 0 0 0 1 1 1 1 1 1 1 1 1 1 1 1 1 1 1 1 1 0 0 0 0 0 0 0 0 0 0 0 0 0 0 0 0 0 0 0 0 0 0
-0 0 0 0 0 0 0 0 0 0 1 1 1 1 1 1 1 1 1 1 1 1 1 1 1 1 1 0 0 0 0 0 0 0 0 0 0 -0 -0 -0 0 0 0 0 0 0 0 0 0
0 0 0 0 0 0 0 0 0 1 1 1 1 1 1 2 2 1 1 1 1 1 1 1 1 1 1 1 0 0 0 0 0 0 0 0 0 -0 -0 -0 0 0 0 0 0 0 0 0 0
0 0 0 0 0 0 0 0 0 1 1 1 1 1 2 2 2 1 1 1 1 1 1 1 1 1 1 1 1 0 0 0 0 0 0 0 0 -0 -0 -0 -0 0 0 0 0 0 0 0 0
0 0 0 0 0 0 0 0 0 1 1 1 1 2 2 2 1 1 1 1 1 1 1 1 1 1 1 1 1 0 0 0 0 0 0 0 0 -0 -0 -0 -0 -0 0 0 0 0 0 0 0
0 0 0 0 0 0 0 0 0 0 1 1 1 2 2 2 1 1 1 1 1 1 1 1 1 1 1 1 0 0 0 0 0 0 0 0 0 0 -0 -0 -0 0 0 0 0 0 0 0 0
0 0 0 0 0 0 0 0 0 1 1 1 2 2 2 1 1 1 1 1 1 1 1 1 1 1 1 0 0 0 0 0 0 0 0 0 0 0 0 0 0 0 0 0 0 0 0 0 0
0 0 0 0 0 0 0 0 0 1 1 1 2 1 1 1 1 1 1 1 1 1 1 1 1 0 0 0 0 0 0 0 0 0 0 0 0 0 0 0 0 0 0 0 0 0 0 0 0
0 0 0 0 0 0 0 0 0 1 1 1 1 1 1 1 1 1 1 1 0 0 0 0 0 0 0 0 0 0 0 0 0 0 0 0 0 0 0 0 0 0 0 0 0 0 0 0 0
0 0 0 0 0 0 0 0 0 0 1 1 1 1 1 1 1 1 1 1 0 0 0 0 0 0 0 0 0 0 0 0 0 0 0 0 0 0 0 0 0 0 0 0 0 0 0 0 0
0 0 0 0 0 0 0 0 0 0 1 1 1 1 1 1 1 0 0 0 0 0 0 0 0 0 0 0 0 0 0 0 0 0 0 0 0 0 0 0 0 0 0 0 0 0 0 0 0
0 0 0 0 0 0 0 0 0 0 0 0 0 0 0 0 0 0 0 0 0 0 0 0 0 0 0 0 0 0 0 0 0 0 0 0 0 0 0 0 0 0 0 0 0 0 0 0 0
0 0 0 0 0 0 0 0 0 0 0 0 0 0 0 0 0 0 0 0 0 0 0 0 0 0 0 0 0 0 0 0 0 0 0 0 0 0 0 0 0 0 0 0 0 0 0 0 0
0 0 0 0 0 0 0 0 0 0 0 0 0 0 0 0 0 0 0 0 0 0 0 0 0 0 0 0 0 0 0 0 0 0 0 0 0 0 0 0 0 0 0 0 0 0 0 0 0
0 0 0 0 0 0 0 0 0 0 0 0 0 0 0 0 0 0 0 0 0 0 0 0 0 0 0 0 0 0 0 0 0 0 0 0 0 0 0 0 0 0 0 0 0 0 0 0 0
0 0 0 0 0 0 0 0 0 0 0 0 0 0 0 0 0 0 0 0 0 0 0 0 0 0 0 0 0 0 0 0 0 0 0 0 0 0 0 0 0 0 0 0 0 0 0 0 0
0 0 0 0 0 0 0 0 0 0 0 0 0 0 0 0 0 0 0 0 0 0 0 0 0 0 0 0 0 0 0 0 0 0 0 0 0 0 0 0 0 0 0 0 0 0 0 0 0
0 0 0 0 0 0 0 0 0 0 0 0 0 0 0 0 0 0 0 0 0 0 0 0 0 0 0 0 0 0 0 0 0 0 0 0 0 0 0 0 0 0 0 0 0 0 0 0 0
0 0 0 0 0 0 0 0 0 0 0 0 0 0 0 0 0 0 0 0 0 0 0 0 0 0 0 0 0 0 0 0 0 0 0 0 0 0 0 0 0 0 0 0 0 0 0 0 0
0 0 0 0 0 0 0 0 0 0 0 0 0 0 0 0 0 0 0 0 0 0 0 0 0 0 0 0 0 0 0 0 0 0 0 0 0 0 0 0 0 0 0 0 0 0 0 0 0
0 0 0 0 0 0 0 0 0 0 0 0 0 0 0 0 0 0 0 0 0 0 0 0 0 0 0 0 0 0 0 0 0 0 0 0 0 0 0 0 0 0 0 0 0 0 0 0 0
0 0 0 0 0 0 0 0 0 0 0 0 0 0 0 0 0 0 0 0 0 0 0 0 0 0 0 0 0 0 0 0 0 0 0 0 0 0 0 0 0 0 0 0 0 0 0 0 0
0 0 0 0 0 0 0 0 0 0 0 0 0 0 0 0 0 0 0 0 0 0 0 0 0 0 0 0 0 0 0 0 0 0 0 0 0 0 0 0 0 0 0 0 0 0 0 0 0
Wind_Speed
5 4 2 1 3 3 2 3 2 1 1 1 3 3 4 5 5 3 2 11 16 15 12 15 17 17 17 16 16 16 16 15 15 15 14 14 13 13 12 12 11 11 11 10 10 10 10 11 11
4 3 1 2 4 1 4 3 3 4 3 3 3 2 1 1 2 5 6 10 16 15 11 13 18 17 17 16 16 15 15 15 14 14 13 13 12 12 11 11 11 11 11 10 10 10 11 11 10
3 2 2 3 2 3 4 3 4 3 4 4 2 1 1 2 5 6 6 13 14 13 10 13 20 18 17 16 16 15 15 14 14 13 13 12 12 11 11 11 10 10 10 10 10 10 10 10 10
2 2 3 3 3 5 5 4 4 6 3 2 3 2 1 1 5 7 13 15 14 11 10 13 20 18 17 16 16 15 14 13 13 13 12 11 11 11 10 10 10 10 10 9 9 9 9 10 10
2 3 4 2 5 5 4 4 6 6 5 3 4 3 1 2 7 14 16 16 15 11 9 12 19 18 17 16 16 15 14 13 13 12 11 11 11 10 9 9 9 9 9 8 8 8 8 8 8
3 4 3 3 6 5 2 3 5 4 3 3 4 3 1 2 10 15 14 13 13 13 10 11 18 18 17 16 16 15 14 13 12 12 11 10 10 9 9 8 8 8 7 7 7 7 7 7 7
3 3 1 3 5 4 1 3 5 5 4 5 5 5 1 4 7 12 11 11 10 11 10 8 10 13 17 16 16 15 14 13 12 11 10 10 9 9 8 7 7 7 6 6 6 6 6 5 6
4 4 1 3 3 4 1 2 2 5 4 3 5 6 5 6 9 11 10 9 9 9 9 8 8 7 8 9 15 15 14 12 11 11 10 9 9 8 7 6 5 5 5 5 4 4 4 4 4
4 4 2 4 4 4 1 2 1 2 4 3 2 3 5 14 14 13 11 8 9 10 7 7 7 7 6 6 11 12 13 12 10 8 10 7 3 3 3 5 5 5 4 4 3 3 3 4 4
4 2 7 6 4 4 3 3 5 4 3 2 2 4 12 16 16 15 15 14 13 12 10 7 7 7 7 7 5 4 4 5 4 3 3 3 2 2 2 3 5 5 4 3 2 2 2 3 2
5 6 6 6 6 4 3 3 4 7 5 7 8 12 16 16 14 13 14 13 12 11 11 9 8 7 7 4 5 3 2 3 3 3 3 3 2 1 1 1 0 0 1 1 1 2 2 2 1
5 7 6 6 3 3 4 4 4 7 8 6 10 17 18 17 15 14 14 11 9 9 9 8 8 7 6 5 5 4 3 3 3 3 3 3 2 1 1 1 1 1 1 1 1 1 1 1 1
4 5 4 6 5 4 4 4 4 4 2 6 12 15 17 15 13 9 9 9 8 9 9 7 7 7 6 5 4 5 4 3 3 3 3 3 3 2 2 1 1 1 1 1 1 1 1 1 1
4 6 7 6 3 2 3 2 1 3 5 10 13 13 14 14 13 9 9 10 9 9 9 8 7 7 6 5 4 4 4 3 3 3 3 4 3 3 2 2 1 1 1 1 1 1 2 1 1
3 5 7 3 1 1 2 2 4 3 8 10 11 11 11 10 10 11 12 11 11 10 9 9 8 7 7 6 5 4 4 4 3 3 3 3 3 4 3 2 1 1 1 2 2 2 2 2 1
3 4 5 7 2 0 2 6 4 4 9 9 8 9 9 8 8 8 9 8 8 8 8 8 8 7 6 6 5 4 4 4 3 3 3 3 4 4 3 3 2 1 2 2 2 2 2 2 2
5 4 5 8 2 0 2 6 2 3 7 7 7 7 7 7 6 6 7 8 8 8 8 8 7 8 7 6 4 4 4 4 3 3 3 3 4 4 3 3 2 2 2 2 2 2 2 2 1
4 5 6 8 5 2 3 5 2 2 5 6 6 6 6 7 7 7 6 7 7 7 7 8 8 7 6 5 5 4 4 3 3 3 3 4 4 4 4 3 3 3 3 2 2 3 3 2 2
4 5 9 10 5 2 4 5 2 2 3 4 4 5 6 6 4 5 6 7 7 7 8 7 8 7 7 5 5 5 3 3 2 2 3 4 4 5 4 3 3 3 3 3 3 3 3 2 1
4 6 7 8 4 1 3 4 1 2 3 4 5 5 6 4 4 6 7 7 9 9 9 8 9 9 8 5 4 4 4 3 2 2 2 3 4 4 4 4 4 3 3 3 3 2 2 2 2
4 5 6 6 4 3 3 5 2 1 1 1 2 3 4 6 7 7 8 8 8 9 9 8 9 8 8 7 5 5 4 4 2 2 2 2 3 4 4 5 4 4 3 3 2 3 4 3 2
6 5 5 3 1 3 3 4 5 2 2 2 2 3 3 4 5 6 7 8 8 8 7 8 8 7 7 8 8 9 6 5 4 3 2 2 3 3 4 5 5 4 3 3 2 2 2 3 2
5 1 2 2 2 2 3 1 8 1 3 4 4 4 4 4 6 7 7 8 8 7 7 8 8 7 7 7 8 8 6 4 3 3 4 3 2 2 3 4 4 4 3 3 3 3 2 2 3
3 4 5 5 5 2 2 0 7 4 5 4 3 3 4 4 5 5 5 6 6 7 7 8 8 8 7 7 7 8 8 7 6 5 4 3 2 1 2 3 4 4 3 3 3 3 3 2 3
3 5 5 6 5 5 1 2 10 6 4 5 5 4 4 5 6 6 7 7 7 8 8 8 9 8 8 8 7 7 8 8 7 6 5 4 3 2 3 4 4 3 3 3 3 3 3 3 3
5 8 7 4 5 6 2 5 9 4 2 2 3 3 4 5 6 7 7 8 8 8 8 9 9 7 8 8 7 6 7 5 4 5 5 5 4 4 4 5 4 4 4 4 4 3 2 2 2
6 4 5 7 2 2 5 7 10 1 1 2 3 4 4 5 6 6 7 8 8 8 8 9 9 8 8 8 7 6 6 6 6 5 5 4 4 4 5 5 5 5 5 5 4 3 3 3 3
4 8 6 6 4 3 5 5 6 5 5 4 4 4 4 4 5 6 6 7 7 7 7 7 7 8 7 7 6 6 6 6 5 5 6 5 5 4 5 5 6 5 5 5 4 3 3 4 3
4 4 5 4 5 5 3 8 7 7 6 6 6 5 5 6 6 6 6 6 6 6 7 7 6 6 6 7 6 6 5 5 5 5 5 5 5 5 6 6 6 6 6 6 5 5 5 5 4
5 7 8 6 5 5 4 10 4 4 5 5 5 4 5 5 5 6 6 6 6 7 7 7 7 6 6 6 6 6 5 5 5 5 5 5 5 5 6 6 6 6 7 7 7 7 6 6 6
Wind_Direction
176 149 144 124 65 50 272 253 226 208 213 207 152 164 168 171 177 207 131 143 140 145 153 154 151 147 142 138 134 132 131 130 129 128 128 128 128 127 127 124 121 118 114 111 109 109 109 110 110
140 156 142 70 80 26 283 239 215 209 179 136 126 120 137 191 103 118 132 144 142 145 148 152 153 149 145 142 139 137 136 134 132 131 130 130 129 129 129 125 123 120 115 112 109 109 109 110 112
158 176 90 73 111 199 249 232 202 167 162 162 144 117 175 183 144 149 152 144 140 144 147 156 154 152 149 146 143 141 140 139 137 136 135 134 133 132 129 126 124 120 115 111 109 109 109 111 115
134 61 59 66 253 233 227 223 176 153 174 176 148 145 121 96 151 147 141 142 141 144 148 159 155 154 152 150 147 146 145 144 143 140 140 139 136 134 131 129 126 121 115 110 108 108 108 111 116
72 78 52 351 270 256 235 208 173 163 180 176 157 156 104 9 123 135 143 147 146 144 149 158 156 156 155 153 151 150 150 150 148 144 142 140 138 137 134 131 128 124 119 114 110 107 106 110 115
64 68 67 298 283 278 258 176 155 164 174 152 151 146 56 101 134 143 146 147 148 148 150 155 158 158 158 156 155 154 154 153 151 149 148 146 146 144 141 137 134 130 125 119 113 109 104 103 107
115 104 186 257 282 291 252 143 156 165 177 181 157 136 117 140 146 141 139 140 144 147 148 151 156 159 161 159 158 158 158 157 155 154 153 153 153 153 151 147 144 140 133 127 120 111 103 98 104
139 107 272 263 257 273 236 134 161 161 182 148 139 155 186 169 142 131 128 137 144 148 149 147 149 151 154 158 162 162 162 161 160 159 160 161 161 161 159 153 159 153 147 140 130 114 98 90 99
110 79 251 238 230 258 220 158 160 146 130 140 163 173 164 143 141 138 140 148 155 155 149 146 147 145 143 151 167 164 165 165 163 164 168 161 139 138 151 164 174 170 165 159 148 123 97 84 78
115 170 236 227 221 238 249 204 171 149 153 168 118 108 133 144 152 158 164 166 168 165 159 155 156 150 148 161 153 144 146 147 140 133 134 117 116 138 159 185 185 184 181 175 166 138 92 80 64
175 211 245 254 238 226 216 208 168 156 200 206 183 158 152 156 161 170 174 171 171 166 164 162 162 154 153 146 137 126 117 121 123 126 121 121 115 116 116 101 152 97 150 73 60 62 66 86 94
206 245 241 265 250 202 193 180 181 190 217 200 169 156 157 163 170 178 174 170 163 162 166 161 160 156 153 143 140 133 131 133 132 132 134 134 132 135 137 135 114 81 73 92 80 79 81 86 105
231 264 260 257 271 233 189 193 195 227 228 132 140 152 162 167 174 177 171 162 160 169 167 161 159 159 151 144 147 146 143 146 142 137 143 148 148 150 140 129 121 121 111 121 130 123 113 99 88
261 274 284 280 267 214 174 218 172 232 133 133 146 159 167 170 171 167 165 167 172 176 169 161 163 162 151 150 148 146 144 140 136 140 149 148 145 143 137 131 126 122 123 131 136 127 116 101 104
304 314 321 312 305 239 115 299 232 195 139 143 155 162 165 170 173 178 179 178 179 178 172 169 170 163 157 155 156 145 141 137 138 138 141 141 141 141 138 135 136 137 115 115 104 89 87 97 94
4 16 333 305 318 289 145 262 265 157 148 153 161 168 169 172 186 185 176 173 177 175 171 176 179 168 166 158 149 140 138 136 137 134 134 140 140 139 135 134 138 128 113 112 108 93 87 79 82
24 354 301 302 306 323 197 256 296 149 152 161 169 175 177 176 185 190 182 171 171 172 171 173 173 169 164 152 137 127 126 129 131 129 130 132 133 136 130 126 123 116 104 100 115 86 97 96 84
305 308 294 293 295 320 261 257 275 145 156 172 177 181 188 194 196 184 177 169 169 167 172 175 166 160 146 131 115 104 102 109 115 123 128 128 128 130 121 115 111 111 105 94 93 96 78 83 87
255 268 281 281 293 290 260 265 265 163 167 181 184 189 204 208 183 167 168 172 171 166 167 172 167 158 151 144 144 139 142 138 121 124 125 129 132 131 124 119 110 110 111 118 117 101 87 65 59
249 280 284 294 337 347 298 296 274 177 200 199 199 199 198 184 159 162 165 170 178 175 172 171 171 166 165 163 152 137 130 125 114 106 112 130 133 137 134 130 126 121 113 107 107 115 106 69 47
274 235 258 274 320 18 2 320 304 312 257 211 207 199 189 187 176 171 176 176 173 175 175 175 171 164 160 151 128 111 94 85 93 112 118 126 133 134 130 134 131 130 125 127 122 131 133 129 64
276 252 241 267 335 313 29 297 296 300 307 258 231 210 200 182 173 171 172 172 176 175 168 162 158 154 155 151 149 148 148 154 170 160 147 122 122 130 136 136 133 130 127 130 135 129 132 135 132
229 348 56 59 108 353 4 283 290 321 279 256 238 219 205 187 175 175 176 176 169 162 159 154 150 148 155 157 157 152 144 143 131 128 132 124 111 125 137 136 133 134 133 136 127 118 122 127 139
170 64 50 53 62 333 301 287 283 250 233 246 230 215 194 183 172 167 161 151 147 147 149 151 152 151 152 153 156 154 152 147 143 147 150 149 138 135 148 142 141 142 142 145 139 128 128 122 121
125 91 18 352 360 265 267 247 254 252 230 214 210 208 193 178 167 162 157 154 155 156 156 153 154 154 155 154 157 160 159 158 163 163 166 164 166 180 187 166 160 158 159 153 143 137 137 134 130
176 146 160 208 238 280 307 252 257 255 234 198 185 183 171 169 168 166 166 163 165 163 159 156 159 158 154 156 161 159 157 160 167 170 170 178 185 189 181 176 177 174 166 161 153 146 156 146 145
149 180 161 134 157 286 286 284 299 230 207 190 177 168 176 176 174 168 165 167 165 166 168 166 162 158 160 162 158 159 162 166 174 175 176 182 190 187 181 181 183 183 178 172 163 170 176 163 170
151 144 109 124 153 258 290 281 263 257 231 203 190 190 184 171 169 165 167 167 163 164 163 160 161 163 160 160 166 170 172 178 177 172 185 193 197 190 180 189 192 189 187 181 175 181 186 179 185
124 119 118 123 154 165 249 270 231 222 210 197 198 190 181 179 178 173 168 163 154 148 151 154 156 152 157 164 168 168 172 176 173 181 197 198 195 193 196 197 195 195 194 188 188 198 192 196 202
177 173 151 158 208 180 187 264 270 214 200 183 185 180 173 174 172 165 160 154 154 156 156 160 161 161 167 167 168 175 174 172 177 191 201 197 199 200 202 196 198 203 201 194 197 205 203 204 212